Location: Unspecified
(38.7273°N, 77.0677°W)
Time: 00:32:27
(UTC-04:00)

ISS - Pass Details

Date: 27 June 2021
Orbit: 419 x 421 km, 51.6° (Epoch: 03 August)

Event Time Altitude Azimuth Distance (km) Brightness Sun altitude
Exits shadow 04:25:23 22° 202° (SSW) 958 -2.5 -13.1°
Maximum altitude 04:27:13 48° 137° (SE) 552 -3.2 -12.9°
Drops below altitude 10° 04:30:29 10° 61° (ENE) 1,500 0.4 -12.4°
Sets 04:32:37 0° 56° (NE) 2,367 2.0 -12.1°
